Location: LDNL
(36.4545°S, 141.6685°E)
Time: 12:03:26
(UTC+10:00)

Vanguard 3 - Pass Details

Date: 26 January 2022
Orbit: 508 x 3258 km, 33.3° (Epoch: 25 May)

Event Time Altitude Azimuth Distance (km) Brightness Sun altitude
Rises 07:22:06 0° 257° (WSW) 6,226 11.1 6.5°
Reaches altitude 10° 07:25:58 10° 262° (W) 5,499 10.9 7.2°
Maximum altitude 07:42:40 49° 329° (NNW) 3,855 10.4 10.4°
Drops below altitude 10° 08:00:40 10° 36° (NE) 5,855 11.9 13.9°
Sets 08:05:01 0° 41° (NE) 6,635 12.2 14.8°
